owner,sensor,date,latitude,longitude,vertical_datum,direction_of_sea_water_velocity,sea_water_speed,upward_sea_water_velocity,qcFlag 
TABS,ioos:station:wmo:42049:1,2002-03-01T00:00:00Z,28.3507,-96.0058,2.0,244.0654475,44.67934646,-99999.0,'11111222,11111222,99999999' 
TABS,ioos:station:wmo:42049:1,2002-03-01T00:30:00Z,28.3507,-96.0058,2.0,246.1101773,43.01517523,-99999.0,'11111222,11111222,99999999' 
TABS,ioos:station:wmo:42049:1,2002-03-01T01:00:00Z,28.3507,-96.0058,2.0,248.8292206,43.33463511,-99999.0,'11111222,11111222,99999999' 
TABS,ioos:station:wmo:42049:1,2002-03-01T01:30:00Z,28.3507,-96.0058,2.0,245.0859544,49.97004002,-99999.0,'11111222,11111222,99999999' 
TABS,ioos:station:wmo:42049:1,2002-03-01T02:00:00Z,28.3507,-96.0058,2.0,243.5721797,48.4199556,-99999.0,'11111222,11111222,99999999' 
TABS,ioos:station:wmo:42049:1,2002-03-01T02:30:00Z,28.3507,-96.0058,2.0,244.5226036,44.98438173,-99999.0,'11111222,11111222,99999999' 
TABS,ioos:station:wmo:42049:1,2002-03-01T03:00:00Z,28.3507,-96.0058,2.0,243.9722087,44.32529075,-99999.0,'11111222,11111222,99999999' 
TABS,ioos:station:wmo:42049:1,2002-03-01T03:30:00Z,28.3507,-96.0058,2.0,241.1016132,42.29674337,-99999.0,'11111222,11111222,99999999' 
TABS,ioos:station:wmo:42049:1,2002-03-01T04:00:00Z,28.3507,-96.0058,2.0,238.0940598,40.16868059,-99999.0,'11111222,11111222,99999999' 
TABS,ioos:station:wmo:42049:1,2002-03-01T04:30:00Z,28.3507,-96.0058,2.0,247.7887017,39.23099922,-99999.0,'11111222,11111222,99999999' 
TABS,ioos:station:wmo:42049:1,2002-03-01T05:00:00Z,28.3507,-96.0058,2.0,250.1091274,32.24350012,-99999.0,'11111222,11111222,99999999' 
TABS,ioos:station:wmo:42049:1,2002-03-01T05:30:00Z,28.3507,-96.0058,2.0,256.2180141,33.83405385,-99999.0,'11111222,11111222,99999999' 
TABS,ioos:station:wmo:42049:1,2002-03-01T06:00:00Z,28.3507,-96.0058,2.0,250.6803941,42.61992961,-99999.0,'11111222,11111222,99999999' 
TABS,ioos:station:wmo:42049:1,2002-03-01T06:30:00Z,28.3507,-96.0058,2.0,239.9761164,40.55115535,-99999.0,'11111222,11111222,99999999' 
TABS,ioos:station:wmo:42049:1,2002-03-01T07:00:00Z,28.3507,-96.0058,2.0,252.1086987,35.96936752,-99999.0,'11111222,11111222,99999999' 
TABS,ioos:station:wmo:42049:1,2002-03-01T07:30:00Z,28.3507,-96.0058,2.0,243.290363,47.96828223,-99999.0,'11111222,11111222,99999999' 
TABS,ioos:station:wmo:42049:1,2002-03-01T08:00:00Z,28.3507,-96.0058,2.0,246.7603788,46.25270262,-99999.0,'11111222,11111222,99999999' 
TABS,ioos:station:wmo:42049:1,2002-03-01T08:30:00Z,28.3507,-96.0058,2.0,248.4133879,48.95335024,-99999.0,'11111222,11111222,99999999' 
TABS,ioos:station:wmo:42049:1,2002-03-01T09:00:00Z,28.3507,-96.0058,2.0,248.0737906,47.88351282,-99999.0,'11111222,11111222,99999999' 
TABS,ioos:station:wmo:42049:1,2002-03-01T09:30:00Z,28.3507,-96.0058,2.0,245.6802107,43.02815938,-99999.0,'11111222,11111222,99999999' 
TABS,ioos:station:wmo:42049:1,2002-03-01T10:00:00Z,28.3507,-96.0058,2.0,244.9670133,41.8070628,-99999.0,'11111222,11111222,99999999' 
TABS,ioos:station:wmo:42049:1,2002-03-01T10:30:00Z,28.3507,-96.0058,2.0,242.9401825,40.42514193,-99999.0,'11111222,11111222,99999999' 
TABS,ioos:station:wmo:42049:1,2002-03-01T11:00:00Z,28.3507,-96.0058,2.0,251.0920812,42.55621811,-99999.0,'11111222,11111222,99999999' 
TABS,ioos:station:wmo:42049:1,2002-03-01T11:30:00Z,28.3507,-96.0058,2.0,245.5077353,42.52654348,-99999.0,'11111222,11111222,99999999' 
TABS,ioos:station:wmo:42049:1,2002-03-01T12:00:00Z,28.3507,-96.0058,2.0,249.79782,38.0508042,-99999.0,'11111222,11111222,99999999' 
TABS,ioos:station:wmo:42049:1,2002-03-01T12:30:00Z,28.3507,-96.0058,2.0,253.2282148,41.82926488,-99999.0,'11111222,11111222,99999999' 
TABS,ioos:station:wmo:42049:1,2002-03-01T13:00:00Z,28.3507,-96.0058,2.0,257.2816342,42.37976522,-99999.0,'11111222,11111222,99999999' 
TABS,ioos:station:wmo:42049:1,2002-03-01T13:30:00Z,28.3507,-96.0058,2.0,246.486244,44.69081897,-99999.0,'11111222,11111222,99999999' 
TABS,ioos:station:wmo:42049:1,2002-03-01T14:00:00Z,28.3507,-96.0058,2.0,247.0666637,46.73377472,-99999.0,'11111222,11111222,99999999' 
TABS,ioos:station:wmo:42049:1,2002-03-01T14:30:00Z,28.3507,-96.0058,2.0,246.3974492,43.43330634,-99999.0,'11111222,11111222,99999999' 
TABS,ioos:station:wmo:42049:1,2002-03-01T15:00:00Z,28.3507,-96.0058,2.0,246.3415158,41.09366983,-99999.0,'11111222,11111222,99999999' 
TABS,ioos:station:wmo:42049:1,2002-03-01T15:30:00Z,28.3507,-96.0058,2.0,250.3276551,38.23136016,-99999.0,'11111222,11111222,99999999' 
TABS,ioos:station:wmo:42049:1,2002-03-01T16:00:00Z,28.3507,-96.0058,2.0,227.6722944,43.06722187,-99999.0,'11111222,11111222,99999999' 
TABS,ioos:station:wmo:42049:1,2002-03-01T16:30:00Z,28.3507,-96.0058,2.0,231.2971854,39.83837597,-99999.0,'11111222,11111222,99999999' 
TABS,ioos:station:wmo:42049:1,2002-03-01T17:00:00Z,28.3507,-96.0058,2.0,239.0589991,38.27677233,-99999.0,'11111222,11111222,99999999' 
TABS,ioos:station:wmo:42049:1,2002-03-01T17:30:00Z,28.3507,-96.0058,2.0,240.0124602,37.83465343,-99999.0,'11111222,11111222,99999999' 
TABS,ioos:station:wmo:42049:1,2002-03-01T18:00:00Z,28.3507,-96.0058,2.0,237.2132752,34.99484105,-99999.0,'11111222,11111222,99999999' 
TABS,ioos:station:wmo:42049:1,2002-03-01T18:30:00Z,28.3507,-96.0058,2.0,238.7519999,30.45852262,-99999.0,'11111222,11111222,99999999' 
TABS,ioos:station:wmo:42049:1,2002-03-01T19:00:00Z,28.3507,-96.0058,2.0,239.3284706,35.60014045,-99999.0,'11111222,11111222,99999999' 
TABS,ioos:station:wmo:42049:1,2002-03-01T19:30:00Z,28.3507,-96.0058,2.0,238.1545744,37.12869106,-99999.0,'11111222,11111222,99999999' 
TABS,ioos:station:wmo:42049:1,2002-03-01T20:00:00Z,28.3507,-96.0058,2.0,245.8692485,35.68855559,-99999.0,'11111222,11111222,99999999' 
TABS,ioos:station:wmo:42049:1,2002-03-01T20:30:00Z,28.3507,-96.0058,2.0,240.9274837,38.03167101,-99999.0,'11111222,11111222,99999999' 
TABS,ioos:station:wmo:42049:1,2002-03-01T21:00:00Z,28.3507,-96.0058,2.0,242.9721559,64.83019435,-99999.0,'11111222,11111222,99999999' 
TABS,ioos:station:wmo:42049:1,2002-03-01T21:30:00Z,28.3507,-96.0058,2.0,242.272871,61.32111627,-99999.0,'11111222,11111222,99999999' 
TABS,ioos:station:wmo:42049:1,2002-03-01T22:00:00Z,28.3507,-96.0058,2.0,241.9043747,62.13118138,-99999.0,'11111222,11111222,99999999' 
TABS,ioos:station:wmo:42049:1,2002-03-01T22:30:00Z,28.3507,-96.0058,2.0,233.2434346,61.49612102,-99999.0,'11111222,11111222,99999999' 
TABS,ioos:station:wmo:42049:1,2002-03-01T23:00:00Z,28.3507,-96.0058,2.0,241.0998429,79.80890802,-99999.0,'11111222,11111222,99999999' 
TABS,ioos:station:wmo:42049:1,2002-03-01T23:30:00Z,28.3507,-96.0058,2.0,239.1201807,83.93835834,-99999.0,'11111222,11111222,99999999' 
TABS,ioos:station:wmo:42049:1,2002-03-02T00:00:00Z,28.3507,-96.0058,2.0,236.0000111,83.15632026,-99999.0,'11111222,11111222,99999999' 
TABS,ioos:station:wmo:42049:1,2002-03-02T00:30:00Z,28.3507,-96.0058,2.0,234.0677106,79.90470637,-99999.0,'11111222,11111222,99999999' 
TABS,ioos:station:wmo:42049:1,2002-03-02T01:00:00Z,28.3507,-96.0058,2.0,233.2608484,77.80420361,-99999.0,'11111222,11111222,99999999' 
TABS,ioos:station:wmo:42049:1,2002-03-02T01:30:00Z,28.3507,-96.0058,2.0,235.0737319,77.4125526,-99999.0,'11111222,11111222,99999999' 
TABS,ioos:station:wmo:42049:1,2002-03-02T02:00:00Z,28.3507,-96.0058,2.0,236.1451149,82.12370243,-99999.0,'11111222,11111222,99999999' 
TABS,ioos:station:wmo:42049:1,2002-03-02T02:30:00Z,28.3507,-96.0058,2.0,243.0737147,97.27535865,-99999.0,'11111222,11111222,99999999' 
TABS,ioos:station:wmo:42049:1,2002-03-02T03:00:00Z,28.3507,-96.0058,2.0,242.0970011,94.25806119,-99999.0,'11111222,11111222,99999999' 
TABS,ioos:station:wmo:42049:1,2002-03-02T03:30:00Z,28.3507,-96.0058,2.0,235.9490637,88.15470039,-99999.0,'11111222,11111222,99999999' 
TABS,ioos:station:wmo:42049:1,2002-03-02T04:00:00Z,28.3507,-96.0058,2.0,232.7927227,86.35749417,-99999.0,'11111222,11111222,99999999' 
TABS,ioos:station:wmo:42049:1,2002-03-02T04:30:00Z,28.3507,-96.0058,2.0,232.9184083,94.33664187,-99999.0,'11111222,11111222,99999999' 
TABS,ioos:station:wmo:42049:1,2002-03-02T05:00:00Z,28.3507,-96.0058,2.0,235.1528002,95.06725409,-99999.0,'11111222,11111222,99999999' 
TABS,ioos:station:wmo:42049:1,2002-03-02T05:30:00Z,28.3507,-96.0058,2.0,233.2894451,91.85835672,-99999.0,'11111222,11111222,99999999' 
TABS,ioos:station:wmo:42049:1,2002-03-02T06:00:00Z,28.3507,-96.0058,2.0,247.2613253,87.44634069,-99999.0,'11111222,11111222,99999999' 
TABS,ioos:station:wmo:42049:1,2002-03-02T06:30:00Z,28.3507,-96.0058,2.0,251.9122544,90.70211684,-99999.0,'11111222,11111222,99999999' 
TABS,ioos:station:wmo:42049:1,2002-03-02T07:00:00Z,28.3507,-96.0058,2.0,255.178053,92.7252285,-99999.0,'11111222,11111222,99999999' 
TABS,ioos:station:wmo:42049:1,2002-03-02T07:30:00Z,28.3507,-96.0058,2.0,254.5991826,88.52876708,-99999.0,'11111222,11111222,99999999' 
TABS,ioos:station:wmo:42049:1,2002-03-02T08:00:00Z,28.3507,-96.0058,2.0,249.9405265,82.451567,-99999.0,'11111222,11111222,99999999' 
TABS,ioos:station:wmo:42049:1,2002-03-02T08:30:00Z,28.3507,-96.0058,2.0,243.215431,78.33450645,-99999.0,'11111222,11111222,99999999' 
TABS,ioos:station:wmo:42049:1,2002-03-02T09:00:00Z,28.3507,-96.0058,2.0,240.8496988,71.79269392,-99999.0,'11111222,11111222,99999999' 
TABS,ioos:station:wmo:42049:1,2002-03-02T09:30:00Z,28.3507,-96.0058,2.0,242.9793941,76.55643931,-99999.0,'11111222,11111222,99999999' 
TABS,ioos:station:wmo:42049:1,2002-03-02T10:00:00Z,28.3507,-96.0058,2.0,242.3455511,77.41324047,-99999.0,'11111222,11111222,99999999' 
TABS,ioos:station:wmo:42049:1,2002-03-02T10:30:00Z,28.3507,-96.0058,2.0,235.9556408,60.16115773,-99999.0,'11111222,11111222,99999999' 
TABS,ioos:station:wmo:42049:1,2002-03-02T11:00:00Z,28.3507,-96.0058,2.0,237.3366113,69.63160777,-99999.0,'11111222,11111222,99999999' 
TABS,ioos:station:wmo:42049:1,2002-03-02T11:30:00Z,28.3507,-96.0058,2.0,230.6797459,62.08475256,-99999.0,'11111222,11111222,99999999' 
TABS,ioos:station:wmo:42049:1,2002-03-02T12:00:00Z,28.3507,-96.0058,2.0,246.442358,56.42216674,-99999.0,'11111222,11111222,99999999' 
TABS,ioos:station:wmo:42049:1,2002-03-02T12:30:00Z,28.3507,-96.0058,2.0,252.0536003,72.63383784,-99999.0,'11111222,11111222,99999999' 
TABS,ioos:station:wmo:42049:1,2002-03-02T13:00:00Z,28.3507,-96.0058,2.0,245.9654509,68.15922608,-99999.0,'11111222,11111222,99999999' 
TABS,ioos:station:wmo:42049:1,2002-03-02T13:30:00Z,28.3507,-96.0058,2.0,241.3891863,67.91240535,-99999.0,'11111222,11111222,99999999' 
TABS,ioos:station:wmo:42049:1,2002-03-02T14:00:00Z,28.3507,-96.0058,2.0,227.4428167,79.62188769,-99999.0,'11111222,11111222,99999999' 
TABS,ioos:station:wmo:42049:1,2002-03-02T14:30:00Z,28.3507,-96.0058,2.0,226.6815307,75.65058889,-99999.0,'11111222,11111222,99999999' 
TABS,ioos:station:wmo:42049:1,2002-03-02T15:00:00Z,28.3507,-96.0058,2.0,230.0776854,73.09768601,-99999.0,'11111222,11111222,99999999' 
TABS,ioos:station:wmo:42049:1,2002-03-02T15:30:00Z,28.3507,-96.0058,2.0,232.6717097,67.79616656,-99999.0,'11111222,11111222,99999999' 
TABS,ioos:station:wmo:42049:1,2002-03-02T16:00:00Z,28.3507,-96.0058,2.0,227.5345702,69.86687699,-99999.0,'11111222,11111222,99999999' 
TABS,ioos:station:wmo:42049:1,2002-03-02T16:30:00Z,28.3507,-96.0058,2.0,229.2030121,70.61778246,-99999.0,'11111222,11111222,99999999' 
TABS,ioos:station:wmo:42049:1,2002-03-02T17:00:00Z,28.3507,-96.0058,2.0,228.5636674,65.51995116,-99999.0,'11111222,11111222,99999999' 
TABS,ioos:station:wmo:42049:1,2002-03-02T17:30:00Z,28.3507,-96.0058,2.0,231.3290257,66.06462594,-99999.0,'11111222,11111222,99999999' 
TABS,ioos:station:wmo:42049:1,2002-03-02T18:00:00Z,28.3507,-96.0058,2.0,234.8443035,61.49753247,-99999.0,'11111222,11111222,99999999' 
TABS,ioos:station:wmo:42049:1,2002-03-02T18:30:00Z,28.3507,-96.0058,2.0,227.3443265,55.13684884,-99999.0,'11111222,11111222,99999999' 
TABS,ioos:station:wmo:42049:1,2002-03-02T19:00:00Z,28.3507,-96.0058,2.0,232.677416,55.73173692,-99999.0,'11111222,11111222,99999999' 
TABS,ioos:station:wmo:42049:1,2002-03-02T19:30:00Z,28.3507,-96.0058,2.0,233.1551703,54.13200532,-99999.0,'11111222,11111222,99999999' 
TABS,ioos:station:wmo:42049:1,2002-03-02T20:00:00Z,28.3507,-96.0058,2.0,233.8546328,48.69189666,-99999.0,'11111222,11111222,99999999' 
TABS,ioos:station:wmo:42049:1,2002-03-02T20:30:00Z,28.3507,-96.0058,2.0,233.0532907,47.94804271,-99999.0,'11111222,11111222,99999999' 
TABS,ioos:station:wmo:42049:1,2002-03-02T21:00:00Z,28.3507,-96.0058,2.0,235.4205628,48.08442783,-99999.0,'11111222,11111222,99999999' 
TABS,ioos:station:wmo:42049:1,2002-03-02T21:30:00Z,28.3507,-96.0058,2.0,229.1902263,48.96369676,-99999.0,'11111222,11111222,99999999' 
TABS,ioos:station:wmo:42049:1,2002-03-02T22:00:00Z,28.3507,-96.0058,2.0,230.3952265,46.32274819,-99999.0,'11111222,11111222,99999999' 
TABS,ioos:station:wmo:42049:1,2002-03-02T22:30:00Z,28.3507,-96.0058,2.0,223.2828901,46.73245125,-99999.0,'11111222,11111222,99999999' 
TABS,ioos:station:wmo:42049:1,2002-03-02T23:00:00Z,28.3507,-96.0058,2.0,221.9200509,47.77749366,-99999.0,'11111222,11111222,99999999' 
TABS,ioos:station:wmo:42049:1,2002-03-02T23:30:00Z,28.3507,-96.0058,2.0,221.570835,45.75393426,-99999.0,'11111222,11111222,99999999' 
TABS,ioos:station:wmo:42049:1,2002-03-03T00:00:00Z,28.3507,-96.0058,2.0,229.6343513,55.56937736,-99999.0,'11111222,11111222,99999999' 
TABS,ioos:station:wmo:42049:1,2002-03-03T00:30:00Z,28.3507,-96.0058,2.0,228.538165,46.74401994,-99999.0,'11111222,11111222,99999999' 
TABS,ioos:station:wmo:42049:1,2002-03-03T01:00:00Z,28.3507,-96.0058,2.0,231.7045079,47.36065244,-99999.0,'11111222,11111222,99999999' 
TABS,ioos:station:wmo:42049:1,2002-03-03T01:30:00Z,28.3507,-96.0058,2.0,228.8171715,47.26181651,-99999.0,'11111222,11111222,99999999' 
TABS,ioos:station:wmo:42049:1,2002-03-03T02:00:00Z,28.3507,-96.0058,2.0,228.82759,50.62865789,-99999.0,'11111222,11111222,99999999' 
TABS,ioos:station:wmo:42049:1,2002-03-03T02:30:00Z,28.3507,-96.0058,2.0,235.3201435,48.66555764,-99999.0,'11111222,11111222,99999999' 
TABS,ioos:station:wmo:42049:1,2002-03-03T03:00:00Z,28.3507,-96.0058,2.0,235.1788601,49.89390444,-99999.0,'11111222,11111222,99999999' 
TABS,ioos:station:wmo:42049:1,2002-03-03T03:30:00Z,28.3507,-96.0058,2.0,228.2487282,58.76310492,-99999.0,'11111222,11111222,99999999' 
TABS,ioos:station:wmo:42049:1,2002-03-03T04:00:00Z,28.3507,-96.0058,2.0,236.8501291,50.27194247,-99999.0,'11111222,11111222,99999999' 
TABS,ioos:station:wmo:42049:1,2002-03-03T04:30:00Z,28.3507,-96.0058,2.0,239.6404245,44.53723162,-99999.0,'11111222,11111222,99999999' 
TABS,ioos:station:wmo:42049:1,2002-03-03T05:00:00Z,28.3507,-96.0058,2.0,238.7799382,45.3000883,-99999.0,'11111222,11111222,99999999' 
TABS,ioos:station:wmo:42049:1,2002-03-03T05:30:00Z,28.3507,-96.0058,2.0,234.8446189,45.78050349,-99999.0,'11111222,11111222,99999999' 
TABS,ioos:station:wmo:42049:1,2002-03-03T06:00:00Z,28.3507,-96.0058,2.0,229.0342594,68.4407722,-99999.0,'11111222,11111222,99999999' 
TABS,ioos:station:wmo:42049:1,2002-03-03T06:30:00Z,28.3507,-96.0058,2.0,233.6856624,62.46093979,-99999.0,'11111222,11111222,99999999' 
TABS,ioos:station:wmo:42049:1,2002-03-03T07:00:00Z,28.3507,-96.0058,2.0,234.5232004,52.22544399,-99999.0,'11111222,11111222,99999999' 
TABS,ioos:station:wmo:42049:1,2002-03-03T07:30:00Z,28.3507,-96.0058,2.0,232.5353428,48.58061445,-99999.0,'11111222,11111222,99999999' 
TABS,ioos:station:wmo:42049:1,2002-03-03T08:00:00Z,28.3507,-96.0058,2.0,229.715716,45.23828688,-99999.0,'11111222,11111222,99999999' 
TABS,ioos:station:wmo:42049:1,2002-03-03T08:30:00Z,28.3507,-96.0058,2.0,225.9733557,46.60506625,-99999.0,'11111222,11111222,99999999' 
TABS,ioos:station:wmo:42049:1,2002-03-03T09:00:00Z,28.3507,-96.0058,2.0,228.7417627,41.92890292,-99999.0,'11111222,11111222,99999999' 
TABS,ioos:station:wmo:42049:1,2002-03-03T09:30:00Z,28.3507,-96.0058,2.0,238.9472326,39.89747862,-99999.0,'11111222,11111222,99999999' 
TABS,ioos:station:wmo:42049:1,2002-03-03T10:00:00Z,28.3507,-96.0058,2.0,233.8664109,44.95771569,-99999.0,'11111222,11111222,99999999' 
TABS,ioos:station:wmo:42049:1,2002-03-03T10:30:00Z,28.3507,-96.0058,2.0,247.9779825,38.16438785,-99999.0,'11111222,11111222,99999999' 
TABS,ioos:station:wmo:42049:1,2002-03-03T11:00:00Z,28.3507,-96.0058,2.0,249.0192865,27.34273212,-99999.0,'11111222,11111222,99999999' 
TABS,ioos:station:wmo:42049:1,2002-03-03T11:30:00Z,28.3507,-96.0058,2.0,251.2454809,29.51715772,-99999.0,'11111222,11111222,99999999' 
TABS,ioos:station:wmo:42049:1,2002-03-03T12:00:00Z,28.3507,-96.0058,2.0,246.5075886,31.53365345,-99999.0,'11111222,11111222,99999999' 
TABS,ioos:station:wmo:42049:1,2002-03-03T12:30:00Z,28.3507,-96.0058,2.0,235.4254685,35.94885255,-99999.0,'11111222,11111222,99999999' 
TABS,ioos:station:wmo:42049:1,2002-03-03T13:00:00Z,28.3507,-96.0058,2.0,234.047104,38.8509794,-99999.0,'11111222,11111222,99999999' 
TABS,ioos:station:wmo:42049:1,2002-03-03T13:30:00Z,28.3507,-96.0058,2.0,236.5940748,36.3083489,-99999.0,'11111222,11111222,99999999' 
TABS,ioos:station:wmo:42049:1,2002-03-03T14:00:00Z,28.3507,-96.0058,2.0,235.2036342,33.0496475,-99999.0,'11111222,11111222,99999999' 
TABS,ioos:station:wmo:42049:1,2002-03-03T14:30:00Z,28.3507,-96.0058,2.0,234.6276117,34.58381702,-99999.0,'11111222,11111222,99999999' 
TABS,ioos:station:wmo:42049:1,2002-03-03T15:00:00Z,28.3507,-96.0058,2.0,237.164341,48.15333529,-99999.0,'11111222,11111222,99999999' 
TABS,ioos:station:wmo:42049:1,2002-03-03T15:30:00Z,28.3507,-96.0058,2.0,242.8334199,37.93474529,-99999.0,'11111222,11111222,99999999' 
TABS,ioos:station:wmo:42049:1,2002-03-03T16:00:00Z,28.3507,-96.0058,2.0,241.1102125,30.32367062,-99999.0,'11111222,11111222,99999999' 
TABS,ioos:station:wmo:42049:1,2002-03-03T16:30:00Z,28.3507,-96.0058,2.0,238.1023355,31.47245303,-99999.0,'11111222,11111222,99999999' 
TABS,ioos:station:wmo:42049:1,2002-03-03T17:00:00Z,28.3507,-96.0058,2.0,225.931946,32.59486616,-99999.0,'11111222,11111222,99999999' 
TABS,ioos:station:wmo:42049:1,2002-03-03T17:30:00Z,28.3507,-96.0058,2.0,228.4476102,35.62488596,-99999.0,'11111222,11111222,99999999' 
TABS,ioos:station:wmo:42049:1,2002-03-03T18:00:00Z,28.3507,-96.0058,2.0,226.8690618,33.5983824,-99999.0,'11111222,11111222,99999999' 
TABS,ioos:station:wmo:42049:1,2002-03-03T18:30:00Z,28.3507,-96.0058,2.0,234.4341016,38.21990319,-99999.0,'11111222,11111222,99999999' 
TABS,ioos:station:wmo:42049:1,2002-03-03T19:00:00Z,28.3507,-96.0058,2.0,230.9851766,23.4624338,-99999.0,'11111222,11111222,99999999' 
TABS,ioos:station:wmo:42049:1,2002-03-03T19:30:00Z,28.3507,-96.0058,2.0,224.0502524,33.71240869,-99999.0,'11111222,11111222,99999999' 
TABS,ioos:station:wmo:42049:1,2002-03-03T20:00:00Z,28.3507,-96.0058,2.0,220.0901423,35.27971797,-99999.0,'11111222,11111222,99999999' 
TABS,ioos:station:wmo:42049:1,2002-03-03T20:30:00Z,28.3507,-96.0058,2.0,220.9118329,38.58598839,-99999.0,'11111222,11111222,99999999' 
TABS,ioos:station:wmo:42049:1,2002-03-03T21:00:00Z,28.3507,-96.0058,2.0,218.8310141,36.52139784,-99999.0,'11111222,11111222,99999999' 
TABS,ioos:station:wmo:42049:1,2002-03-03T21:30:00Z,28.3507,-96.0058,2.0,217.9900494,37.02507934,-99999.0,'11111222,11111222,99999999' 
TABS,ioos:station:wmo:42049:1,2002-03-03T22:00:00Z,28.3507,-96.0058,2.0,214.9387215,43.39063724,-99999.0,'11111222,11111222,99999999' 
TABS,ioos:station:wmo:42049:1,2002-03-03T22:30:00Z,28.3507,-96.0058,2.0,214.7908876,41.13306821,-99999.0,'11111222,11111222,99999999' 
TABS,ioos:station:wmo:42049:1,2002-03-03T23:00:00Z,28.3507,-96.0058,2.0,217.4786355,44.02848737,-99999.0,'11111222,11111222,99999999' 
TABS,ioos:station:wmo:42049:1,2002-03-03T23:30:00Z,28.3507,-96.0058,2.0,217.7035895,46.9929782,-99999.0,'11111222,11111222,99999999' 
TABS,ioos:station:wmo:42049:1,2002-03-04T00:00:00Z,28.3507,-96.0058,2.0,217.1519337,49.9226061,-99999.0,'11111222,11111222,99999999' 
TABS,ioos:station:wmo:42049:1,2002-03-04T00:30:00Z,28.3507,-96.0058,2.0,220.066244,57.06278822,-99999.0,'11111222,11111222,99999999' 
TABS,ioos:station:wmo:42049:1,2002-03-04T01:00:00Z,28.3507,-96.0058,2.0,224.1046194,59.29813909,-99999.0,'11111222,11111222,99999999' 
TABS,ioos:station:wmo:42049:1,2002-03-04T01:30:00Z,28.3507,-96.0058,2.0,226.1767349,60.58355057,-99999.0,'11111222,11111222,99999999' 
TABS,ioos:station:wmo:42049:1,2002-03-04T02:00:00Z,28.3507,-96.0058,2.0,224.5584068,67.94083455,-99999.0,'11111222,11111222,99999999' 
TABS,ioos:station:wmo:42049:1,2002-03-04T02:30:00Z,28.3507,-96.0058,2.0,230.2005131,68.64569324,-99999.0,'11111222,11111222,99999999' 
TABS,ioos:station:wmo:42049:1,2002-03-04T03:00:00Z,28.3507,-96.0058,2.0,228.8368283,67.73002658,-99999.0,'11111222,11111222,99999999' 
TABS,ioos:station:wmo:42049:1,2002-03-04T03:30:00Z,28.3507,-96.0058,2.0,228.9526095,73.74991051,-99999.0,'11111222,11111222,99999999' 
TABS,ioos:station:wmo:42049:1,2002-03-04T04:00:00Z,28.3507,-96.0058,2.0,230.4533734,74.69748055,-99999.0,'11111222,11111222,99999999' 
TABS,ioos:station:wmo:42049:1,2002-03-04T04:30:00Z,28.3507,-96.0058,2.0,235.4262618,72.32208584,-99999.0,'11111222,11111222,99999999' 
TABS,ioos:station:wmo:42049:1,2002-03-04T05:00:00Z,28.3507,-96.0058,2.0,232.5597572,74.38368101,-99999.0,'11111222,11111222,99999999' 
TABS,ioos:station:wmo:42049:1,2002-03-04T05:30:00Z,28.3507,-96.0058,2.0,233.7952472,70.42875052,-99999.0,'11111222,11111222,99999999' 
TABS,ioos:station:wmo:42049:1,2002-03-04T06:00:00Z,28.3507,-96.0058,2.0,232.9345562,66.332385,-99999.0,'11111222,11111222,99999999' 
TABS,ioos:station:wmo:42049:1,2002-03-04T06:30:00Z,28.3507,-96.0058,2.0,234.4848595,61.14510038,-99999.0,'11111222,11111222,99999999' 
TABS,ioos:station:wmo:42049:1,2002-03-04T07:00:00Z,28.3507,-96.0058,2.0,234.5424784,57.92160564,-99999.0,'11111222,11111222,99999999' 
TABS,ioos:station:wmo:42049:1,2002-03-04T07:30:00Z,28.3507,-96.0058,2.0,237.7060161,56.67668392,-99999.0,'11111222,11111222,99999999' 
TABS,ioos:station:wmo:42049:1,2002-03-04T08:00:00Z,28.3507,-96.0058,2.0,239.2862828,54.15634035,-99999.0,'11111222,11111222,99999999' 
TABS,ioos:station:wmo:42049:1,2002-03-04T08:30:00Z,28.3507,-96.0058,2.0,242.5191919,50.66682248,-99999.0,'11111222,11111222,99999999' 
TABS,ioos:station:wmo:42049:1,2002-03-04T09:00:00Z,28.3507,-96.0058,2.0,243.8225178,47.5577838,-99999.0,'11111222,11111222,99999999' 
TABS,ioos:station:wmo:42049:1,2002-03-04T09:30:00Z,28.3507,-96.0058,2.0,242.8029157,55.57413877,-99999.0,'11111222,11111222,99999999' 
TABS,ioos:station:wmo:42049:1,2002-03-04T10:00:00Z,28.3507,-96.0058,2.0,243.6667549,51.87273079,-99999.0,'11111222,11111222,99999999' 
TABS,ioos:station:wmo:42049:1,2002-03-04T10:30:00Z,28.3507,-96.0058,2.0,245.3741731,45.7180063,-99999.0,'11111222,11111222,99999999' 
TABS,ioos:station:wmo:42049:1,2002-03-04T11:00:00Z,28.3507,-96.0058,2.0,249.2875484,40.82878519,-99999.0,'11111222,11111222,99999999' 
TABS,ioos:station:wmo:42049:1,2002-03-04T11:30:00Z,28.3507,-96.0058,2.0,247.3050615,37.1677239,-99999.0,'11111222,11111222,99999999' 
TABS,ioos:station:wmo:42049:1,2002-03-04T12:00:00Z,28.3507,-96.0058,2.0,243.2410747,51.64004841,-99999.0,'11111222,11111222,99999999' 
TABS,ioos:station:wmo:42049:1,2002-03-04T12:30:00Z,28.3507,-96.0058,2.0,249.9743355,44.09597374,-99999.0,'11111222,11111222,99999999' 
TABS,ioos:station:wmo:42049:1,2002-03-04T13:00:00Z,28.3507,-96.0058,2.0,248.3775117,53.4080977,-99999.0,'11111222,11111222,99999999' 
TABS,ioos:station:wmo:42049:1,2002-03-04T13:30:00Z,28.3507,-96.0058,2.0,246.8103295,48.60701595,-99999.0,'11111222,11111222,99999999' 
TABS,ioos:station:wmo:42049:1,2002-03-04T14:00:00Z,28.3507,-96.0058,2.0,250.0115834,39.66953491,-99999.0,'11111222,11111222,99999999' 
TABS,ioos:station:wmo:42049:1,2002-03-04T14:30:00Z,28.3507,-96.0058,2.0,250.6697992,38.06581669,-99999.0,'11111222,11111222,99999999' 
TABS,ioos:station:wmo:42049:1,2002-03-04T15:00:00Z,28.3507,-96.0058,2.0,237.5933781,53.4782021,-99999.0,'11111222,11111222,99999999' 
TABS,ioos:station:wmo:42049:1,2002-03-04T15:30:00Z,28.3507,-96.0058,2.0,239.7288935,46.08332562,-99999.0,'11111222,11111222,99999999' 
TABS,ioos:station:wmo:42049:1,2002-03-04T16:00:00Z,28.3507,-96.0058,2.0,245.1528712,35.19812069,-99999.0,'11111222,11111222,99999999' 